Zurück zum Katalog

PSLV DEB

AktivSSO
NORAD 27136·DEBRIS·🇮🇳 India

Gestartet Oct 22, 2001 von Satish Dhawan Space Centre

Loading…

Nächste Überflüge (nächste 24 Stunden)

TLE

AktuellSource: Space-Track

Epoche: Sep 13, 2026, 19:45 UTC

1 27136U 01049CG  26256.82359544  .00004479  00000-0  25483-3 0  9993
2 27136  97.8922 341.3728 0026227  26.9709  94.1392 15.13118701358314

Verfolge PSLV DEB in Echtzeit mit AllMySat

Download on the App Store